Vorticity
8 8 7 8 8 7 9 8 8 7 8 11 11 8 4 2 7 9 7 6 5 6 7 6 6 7 6 4 3 2 3 5 7 5 3 1 3 4 3 7 8 6 2 2 4 3 3 2 3 3 4 4 4 5 6 6 5 4 5 5 6 6 6 7 9 9 8 8 8 10 11 9 8 8 8 6 5 7 7 6 5 3 3 3 1 1 2 4 7 8 9 9 8 6 4 3 5
7 7 7 8 8 8 8 6 7 8 10 12 11 7 2 4 7 7 7 6 4 7 7 7 6 6 4 3 3 3 5 5 4 2 2 2 3 3 4 7 7 5 3 3 3 2 2 2 3 4 4 4 4 5 5 5 5 4 4 5 6 7 7 7 9 9 8 7 8 8 9 7 4 4 4 6 7 7 7 7 8 5 3 4 3 1 2 4 6 8 9 9 7 7 5 3 4
6 6 6 7 8 8 7 6 8 8 10 12 11 7 4 5 6 6 8 6 4 7 7 6 5 4 5 5 2 3 3 3 3 1 2 3 3 4 4 5 3 2 2 2 2 3 3 3 3 3 4 4 4 5 5 5 5 4 5 6 6 8 8 8 9 9 8 8 9 8 9 9 5 1 0 6 9 7 7 8 10 8 4 3 3 2 3 4 6 8 9 9 8 6 5 3 3
6 6 6 6 7 8 7 7 7 9 11 12 12 8 6 5 5 5 8 8 4 6 6 3 3 1 4 3 1 3 2 2 4 4 5 4 3 3 5 5 1 -1 1 2 3 5 5 3 3 3 3 4 4 5 5 6 4 5 6 6 7 8 8 9 10 9 10 9 10 10 11 12 9 3 0 5 7 4 6 9 12 12 6 3 2 3 4 5 5 7 9 9 8 6 4 3 3
7 7 7 7 7 7 7 8 8 12 13 12 11 9 7 5 5 4 7 9 4 7 4 2 3 1 4 3 2 4 2 4 6 7 6 4 4 4 5 5 4 4 3 3 4 8 6 4 4 3 4 4 4 5 5 5 5 7 6 5 7 7 8 9 9 9 9 8 7 7 9 12 14 11 5 4 5 3 3 6 11 13 9 3 2 3 5 5 4 7 9 9 9 6 4 3 3
10 9 8 8 7 7 7 9 10 12 10 9 9 8 7 6 6 5 6 7 5 5 4 5 6 4 5 4 5 6 6 8 8 6 5 4 5 6 6 6 5 4 2 2 5 7 6 5 4 3 4 4 5 4 4 6 4 7 5 5 9 7 9 9 8 8 6 5 4 3 5 7 12 17 14 7 5 3 1 3 6 11 12 6 2 3 5 5 4 6 9 10 9 6 4 3 2
9 9 9 8 8 8 8 10 11 10 9 8 9 8 8 7 7 6 5 5 6 5 5 9 6 5 5 4 7 6 5 6 5 4 3 4 6 5 4 2 2 3 4 5 7 8 6 5 4 4 4 4 5 4 4 6 6 10 5 5 10 6 10 10 8 8 4 4 4 3 4 4 6 13 18 14 7 3 2 3 5 7 12 10 4 2 4 6 4 6 8 10 10 7 4 3 2
8 8 8 7 7 7 8 9 11 11 11 10 8 8 8 7 7 6 5 5 8 7 7 6 2 3 2 4 6 4 5 4 2 2 2 4 4 4 3 2 4 6 8 9 8 8 6 5 5 5 5 5 6 5 3 4 8 10 3 4 9 6 11 12 9 8 4 4 4 3 3 4 5 6 13 18 12 5 2 4 7 8 11 14 9 2 2 7 5 5 8 10 11 8 4 3 2
9 8 8 8 7 7 8 9 9 10 12 10 7 7 6 6 8 7 7 7 9 9 7 2 0 2 1 4 5 4 7 3 2 1 1 4 3 4 4 5 7 9 10 10 9 7 6 6 6 6 6 6 6 6 2 4 9 5 1 5 8 8 11 10 9 6 2 2 2 2 2 5 7 6 8 14 15 9 6 6 8 10 11 14 14 7 3 6 6 5 7 10 11 8 4 3 2
9 9 8 8 7 7 9 9 9 8 9 10 8 7 7 6 8 8 8 7 8 8 6 3 4 5 4 6 5 5 5 2 2 2 4 5 4 6 5 6 7 8 8 9 9 8 7 7 7 7 8 7 6 5 2 6 9 6 5 8 8 10 12 11 9 5 2 1 2 1 2 4 7 9 8 9 11 10 8 7 8 11 13 12 14 10 3 5 6 5 6 10 12 9 5 3 2
8 9 9 9 9 9 9 9 9 9 8 8 8 8 7 3 5 8 7 7 7 8 7 7 8 7 6 5 4 3 3 3 4 4 6 5 5 8 10 12 8 3 4 8 9 8 8 8 8 8 7 8 6 3 4 8 8 7 8 8 10 11 12 11 8 4 2 2 2 1 2 3 5 9 10 8 8 8 7 7 8 11 14 12 12 8 2 4 6 6 6 9 13 10 5 2 2
9 9 8 8 9 9 9 10 10 10 9 7 5 6 4 -0 5 9 9 8 8 9 8 8 9 7 7 4 2 3 4 4 2 4 5 5 7 9 12 15 14 8 6 8 9 9 9 9 8 7 8 8 5 4 8 10 8 7 8 10 11 10 10 9 6 4 3 2 2 2 3 3 5 9 12 10 8 8 7 6 7 11 15 12 10 8 3 4 5 6 6 9 14 10 5 2 1
10 9 9 9 10 10 11 12 11 10 7 6 5 5 4 3 8 10 9 8 7 10 9 9 9 8 6 1 2 4 3 2 1 3 3 5 7 8 10 11 15 15 10 8 8 9 8 9 8 7 8 6 4 8 11 9 7 8 10 12 11 10 9 6 5 4 4 4 3 3 4 5 7 10 12 11 9 8 7 6 6 10 16 12 8 9 5 5 5 5 6 9 14 11 5 2 2
9 9 10 10 11 12 13 13 11 9 7 7 8 8 7 6 7 7 7 6 8 11 9 9 8 7 4 2 5 4 1 2 1 2 2 4 6 8 10 7 8 12 11 9 7 7 7 7 8 8 6 5 8 11 10 8 8 10 11 11 9 8 5 5 6 5 6 5 4 5 6 6 7 10 12 12 9 8 7 7 7 7 16 14 7 9 8 5 6 5 6 10 15 12 5 2 2
9 9 9 9 10 10 10 9 8 9 8 8 10 10 9 8 7 6 6 5 8 10 8 9 8 7 7 5 5 1 1 1 -0 2 2 4 10 13 13 9 6 7 8 8 7 6 6 6 6 6 6 8 12 10 9 10 10 10 10 8 7 6 5 8 6 4 7 5 4 6 6 6 6 10 12 11 9 8 6 9 10 3 12 17 8 8 9 6 6 6 6 11 16 12 4 1 3
9 10 9 9 10 9 8 6 6 6 8 9 9 9 9 9 8 7 7 6 8 10 8 6 5 6 6 3 1 1 2 -0 -0 3 3 6 12 17 18 14 7 5 7 7 8 7 6 6 5 7 10 12 12 10 11 12 10 9 8 7 6 5 6 9 7 6 6 3 4 6 5 5 7 11 11 10 9 7 7 10 11 3 6 16 12 7 9 8 6 7 7 11 17 12 4 1 2
10 10 9 9 8 7 7 6 6 6 7 8 8 9 9 10 10 9 8 7 8 9 8 5 3 4 3 2 4 5 3 0 3 4 5 5 2 6 15 17 11 7 8 8 8 8 7 7 7 9 12 12 11 11 11 11 9 8 8 8 7 5 5 6 8 9 6 3 6 6 6 7 8 11 10 10 8 6 7 8 9 5 4 13 16 9 6 8 6 7 8 10 17 13 5 2 2
10 9 10 10 7 5 5 6 7 7 7 7 7 8 8 9 11 11 10 10 9 8 10 8 5 5 6 6 7 7 5 2 5 4 5 4 -3 0 10 15 14 9 8 9 8 7 7 8 10 12 12 11 11 11 10 9 9 9 8 8 7 5 5 5 7 8 6 5 8 8 9 9 9 10 10 11 9 7 7 8 7 5 6 9 15 12 3 5 7 6 8 10 16 14 5 2 2
8 9 9 8 5 4 5 5 7 6 7 7 8 9 7 8 11 10 11 11 10 9 10 10 9 9 9 7 4 5 4 4 5 4 4 4 2 6 11 12 12 9 6 6 7 6 7 9 10 10 11 12 12 11 9 9 8 8 8 8 7 6 6 6 5 6 7 7 7 9 11 11 9 8 9 11 11 10 8 8 7 5 7 8 10 13 7 6 7 5 8 10 13 15 7 1 2
7 8 8 7 5 4 4 5 6 6 6 7 8 8 8 10 10 11 12 10 9 9 7 7 7 6 7 6 3 3 2 3 5 3 3 4 5 10 15 13 9 9 6 4 6 7 9 9 8 9 11 12 12 11 9 9 8 8 9 9 7 7 7 6 5 6 7 8 7 9 10 12 13 10 8 11 14 14 12 10 10 8 8 11 8 9 13 12 8 2 5 10 12 15 8 1 1
6 8 8 9 7 6 6 6 6 6 7 7 7 8 9 10 10 11 11 11 12 10 6 5 4 3 5 5 4 4 1 4 4 1 2 2 6 15 21 17 8 8 8 6 6 8 10 8 7 10 13 13 11 9 9 8 7 8 8 8 6 6 6 6 6 5 6 7 7 9 9 11 14 14 10 11 11 11 12 11 12 11 10 13 10 7 11 15 14 6 3 7 12 15 10 3 1
8 8 5 8 8 8 8 8 8 7 8 8 9 9 9 9 11 10 10 13 9 5 6 6 5 3 2 2 3 3 3 4 2 1 2 0 9 21 25 23 13 9 10 8 8 9 10 9 7 9 11 11 10 8 8 6 7 7 6 6 5 5 4 5 6 5 7 7 6 7 7 9 11 13 11 10 9 8 9 11 13 13 12 13 11 8 7 13 19 11 3 3 8 15 13 4 1
10 8 4 6 6 7 8 8 7 7 9 9 11 11 8 10 10 8 11 12 3 2 8 7 6 4 3 2 2 2 2 3 3 5 5 4 14 20 20 25 19 13 11 7 7 10 10 9 8 8 9 10 9 8 7 6 6 5 5 5 4 4 4 5 6 5 6 5 5 6 5 7 8 8 9 9 10 10 9 10 13 13 14 13 11 9 3 13 24 11 4 4 3 11 15 8 2
11 7 3 5 5 5 5 6 6 6 7 7 11 12 10 11 9 9 13 9 4 7 8 6 6 6 4 2 1 2 0 1 4 7 8 11 16 13 11 20 21 15 11 7 8 10 10 10 9 8 9 9 8 7 6 6 5 5 5 4 4 4 4 4 5 5 4 4 4 4 4 5 5 5 6 8 8 10 11 11 13 13 15 14 13 11 2 11 23 10 4 6 4 6 11 12 5
11 4 0 4 7 5 5 9 9 5 4 5 9 11 11 11 9 11 12 7 7 8 6 7 6 4 2 1 1 2 1 2 4 8 14 17 13 9 8 13 17 14 10 7 8 10 11 10 10 9 8 9 8 6 5 5 5 5 5 4 4 4 4 4 4 3 3 3 3 3 4 4 3 4 5 6 6 7 11 10 9 11 14 12 12 13 7 8 16 12 5 5 6 5 5 12 11
10 5 3 8 9 5 8 11 9 5 1 3 7 8 9 8 10 12 10 7 7 7 7 5 3 3 4 4 5 4 4 5 9 15 17 13 8 8 7 6 10 12 10 8 8 11 11 9 8 8 8 8 7 5 4 4 4 5 5 5 5 4 4 4 4 4 4 4 4 4 5 4 3 4 4 5 6 6 9 9 7 9 12 12 11 14 12 7 9 14 13 7 4 3 2 8 13
11 9 9 11 9 6 9 10 8 6 1 3 6 6 5 5 12 13 10 11 10 8 7 5 7 9 9 9 10 10 11 14 20 20 10 5 6 6 6 5 6 8 10 11 10 9 8 8 8 8 8 7 5 4 3 4 4 4 5 5 5 6 6 6 6 5 5 5 5 5 5 5 4 4 4 4 6 6 8 10 10 11 11 10 10 13 15 11 7 9 15 14 6 1 2 3 9
11 12 13 12 10 8 10 8 7 8 2 2 5 5 5 5 11 11 8 11 9 8 10 10 12 12 13 13 12 14 17 20 21 14 4 4 6 5 5 5 6 6 7 9 9 8 7 8 10 9 7 5 4 3 3 3 4 4 5 5 6 6 6 7 7 7 7 6 6 6 5 6 6 5 5 4 5 6 6 8 10 11 9 9 9 8 10 13 12 9 10 15 13 6 3 2 4
11 13 14 13 14 11 10 8 7 9 3 -0 3 7 8 6 8 6 4 6 5 7 9 8 9 12 15 12 7 9 10 11 10 7 6 5 7 8 8 6 7 7 6 7 7 7 7 8 10 10 7 5 3 3 3 3 4 4 5 6 6 7 8 8 8 8 8 7 7 7 7 7 8 7 6 4 4 5 6 7 8 7 6 7 11 10 8 11 15 15 9 8 14 12 5 2 3
10 12 12 13 17 14 10 9 10 11 3 -1 4 7 9 7 6 6 4 4 4 6 7 7 9 12 10 3 2 4 5 6 6 7 8 7 8 9 8 8 8 8 8 8 8 8 9 8 8 9 7 5 3 3 3 4 4 5 5 6 7 8 9 9 9 9 9 9 8 8 7 7 8 7 6 5 4 4 6 7 7 7 8 6 6 10 11 11 13 17 17 9 8 11 9 3 1
10 10 10 13 18 17 12 10 13 12 2 0 5 6 9 8 5 5 4 5 6 9 12 12 14 15 8 1 2 6 7 8 7 8 9 7 7 7 8 10 9 9 9 9 9 10 10 9 7 6 5 4 3 3 3 4 4 5 5 6 8 9 11 11 10 10 9 8 7 7 6 6 7 7 7 7 6 5 6 8 7 6 9 9 7 6 6 11 13 14 21 20 11 9 10 9 4
10 8 9 10 13 16 15 11 12 12 4 0 4 6 8 7 4 5 5 6 11 14 13 12 14 16 11 5 4 6 8 7 6 8 8 6 6 7 8 8 9 10 9 9 9 9 10 10 8 5 5 4 3 4 4 4 4 5 6 7 8 9 11 11 10 9 8 7 6 6 6 6 7 7 8 9 8 7 6 8 7 4 5 9 12 8 0 6 13 12 14 18 17 14 11 12 12
10 9 10 10 11 12 15 15 13 14 10 6 7 7 6 4 3 6 9 9 10 9 6 6 8 9 9 6 5 6 6 4 3 5 6 6 5 8 9 9 10 11 10 10 9 8 8 8 7 6 5 4 4 4 4 5 5 5 7 8 8 8 9 10 9 8 7 5 5 6 7 7 8 8 8 9 8 7 8 7 6 5 6 7 12 12 4 5 12 14 12 8 11 17 16 16 18
6 7 10 11 12 11 12 15 15 16 17 15 15 13 10 7 4 7 9 8 7 5 3 4 5 5 6 5 6 8 9 7 7 6 7 7 7 8 9 8 8 8 9 10 10 10 8 6 6 5 4 4 5 5 5 6 6 6 7 7 8 8 7 8 8 7 6 5 6 7 7 8 9 9 8 9 10 9 10 8 5 6 6 7 10 11 9 7 8 12 14 9 6 11 13 12 20
2 4 6 7 7 7 7 10 14 16 18 19 17 13 11 7 4 6 7 7 8 7 6 6 7 7 7 7 8 9 9 9 8 7 7 7 8 8 7 7 6 7 7 7 9 9 9 8 7 6 7 7 7 7 8 7 7 7 7 6 7 7 7 7 7 7 6 6 6 7 8 7 8 9 8 9 11 11 11 8 7 8 6 6 9 9 9 9 6 8 15 14 7 10 13 4 9
3 3 4 3 2 2 3 3 6 9 11 15 14 10 10 7 5 6 7 7 8 8 7 8 9 10 11 12 12 10 9 8 7 6 6 6 7 7 7 7 7 8 8 7 8 8 9 10 9 8 8 8 8 9 9 9 9 9 7 6 6 7 7 7 7 7 7 7 7 7 7 7 7 8 9 9 9 10 10 10 9 9 7 7 9 8 7 7 7 7 12 13 5 7 17 10 2
3 4 4 4 4 3 3 2 3 3 3 6 8 8 8 6 5 5 5 5 5 6 7 7 10 12 12 13 13 13 12 11 9 6 6 5 6 7 8 8 8 9 7 6 6 7 7 8 9 9 8 8 9 9 9 9 8 8 8 7 6 7 7 7 7 7 7 7 6 7 7 8 8 8 9 9 10 9 9 11 12 11 8 6 6 7 8 7 7 7 9 12 7 3 11 20 15
3 3 3 4 4 5 6 5 4 5 4 4 6 7 7 6 6 5 4 4 4 6 9 12 13 12 12 13 12 10 7 7 7 6 8 8 7 8 7 7 9 9 7 6 6 6 6 6 7 8 8 8 9 9 8 7 8 8 7 8 7 7 7 6 6 6 6 6 6 7 7 8 8 9 9 9 10 10 9 9 11 14 12 7 4 4 7 7 5 7 8 9 12 10 9 20 25
4 5 5 6 6 6 7 7 6 6 7 7 7 7 7 7 7 7 6 6 5 6 10 15 14 9 9 11 9 5 2 3 4 6 11 10 7 7 7 8 11 9 6 6 7 7 7 7 7 7 8 8 8 8 8 8 8 8 8 8 7 7 7 7 7 6 6 7 7 7 7 8 9 9 9 9 10 10 10 9 9 13 15 12 7 3 4 8 9 9 9 7 8 10 11 14 17
7 8 8 8 7 5 5 7 7 8 8 8 8 7 6 6 6 6 6 6 6 6 8 13 14 9 6 7 6 5 3 3 3 6 9 8 6 7 7 9 10 8 6 7 7 7 8 8 9 9 9 8 8 8 9 9 9 8 8 7 7 8 7 7 7 6 6 7 8 8 7 8 10 11 10 10 10 10 10 10 9 10 14 15 12 6 -1 3 11 10 7 7 5 4 8 13 8
8 7 6 3 3 4 4 5 6 6 7 6 5 6 6 5 5 6 6 6 7 7 8 12 14 10 8 8 7 4 3 3 2 4 6 6 5 7 7 7 8 7 8 8 7 8 9 10 11 11 11 10 10 10 11 10 9 9 8 7 7 8 7 7 7 7 7 8 8 8 9 9 9 11 12 11 10 10 10 11 10 9 11 13 15 13 4 -2 2 4 3 4 6 4 3 11 13
9 8 7 5 5 7 7 6 6 5 5 4 4 5 5 6 7 7 7 6 6 7 8 8 9 6 5 7 4 2 2 2 1 3 4 5 6 8 9 9 10 9 8 7 7 8 10 12 12 11 11 11 10 11 11 10 9 9 7 7 8 8 9 9 9 9 9 10 10 10 10 10 10 11 12 12 11 10 10 10 11 10 10 11 13 15 14 8 4 4 2 0 4 4 -0 1 5
11 11 9 8 7 8 8 8 8 7 6 5 5 5 5 6 7 6 7 7 6 6 4 3 4 2 1 4 3 3 6 1 -1 2 2 4 9 13 15 14 12 10 9 9 10 10 10 11 12 12 11 11 10 11 10 9 9 9 9 9 9 9 9 10 10 10 10 10 11 11 11 11 10 11 12 13 12 10 10 10 10 10 10 10 11 13 14 16 13 10 6 3 3 4 2 -1 -4
8 9 9 9 9 9 10 9 9 8 7 7 7 7 6 7 8 7 6 6 5 4 2 1 1 0 4 8 6 7 7 -3 -5 3 2 5 15 20 19 14 10 12 13 14 13 12 11 10 10 11 11 11 11 11 10 9 9 9 9 9 9 9 9 10 11 11 12 12 10 10 11 13 13 12 12 13 12 11 10 10 10 10 10 9 10 11 12 15 16 15 13 10 9 7 4 3 -0
8 8 8 8 8 8 8 8 8 8 8 10 9 8 7 7 8 8 7 7 7 5 3 3 4 3 4 6 2 2 1 -4 1 8 6 11 20 21 16 12 11 13 14 14 13 11 10 10 9 10 10 11 11 11 10 9 9 9 9 9 10 10 10 10 11 12 13 12 10 8 8 11 12 12 13 13 13 12 10 9 9 9 9 10 9 10 10 11 13 15 15 14 14 13 11 8 6
10 9 9 9 9 10 9 10 10 10 11 12 13 15 15 12 10 10 9 9 8 4 4 5 6 6 5 6 8 11 13 17 21 18 14 20 22 15 13 15 13 12 11 12 11 9 8 8 8 10 11 11 11 11 11 10 9 10 10 11 11 11 11 11 12 13 13 11 9 9 9 10 11 12 13 13 13 13 12 10 9 9 8 9 9 9 10 10 11 12 13 14 13 14 15 14 12
9 10 13 14 15 15 14 16 16 16 17 17 18 18 17 16 17 16 14 12 7 5 8 10 10 12 14 17 19 21 25 30 28 19 15 18 17 17 20 18 12 10 9 8 7 7 7 6 6 8 10 11 12 11 10 10 10 10 10 11 11 11 11 12 12 12 12 9 8 8 9 10 10 10 11 12 13 13 13 11 10 10 10 9 9 9 9 9 10 10 11 12 12 11 11 13 13
11 14 14 14 15 14 13 14 15 15 15 15 14 12 11 14 18 19 17 17 15 13 16 17 16 16 17 17 15 14 18 22 20 15 12 11 12 19 23 16 8 6 5 5 6 5 6 7 7 6 7 9 11 11 10 9 9 10 11 10 10 10 10 11 11 10 9 8 7 7 8 9 10 10 9 10 11 12 12 12 11 10 9 9 10 9 10 10 9 10 10 11 12 11 10 10 11
12 13 11 8 8 8 8 8 9 9 9 9 8 8 9 9 14 17 14 13 16 15 15 15 13 10 10 10 10 13 17 17 15 12 11 10 10 14 16 10 4 3 2 3 5 4 4 7 8 9 8 6 8 9 9 9 9 9 10 10 10 10 10 10 10 10 9 7 6 6 6 8 9 9 9 9 10 11 11 12 11 11 10 10 10 10 9 10 9 9 10 10 10 11 11 10 10
9 9 8 7 7 7 7 8 10 10 10 10 10 12 14 12 14 18 13 10 13 14 12 12 11 9 9 8 8 15 19 15 10 9 9 9 7 8 10 5 -0 1 2 3 6 5 4 7 10 9 8 7 7 7 6 6 5 5 6 7 8 9 9 9 10 10 10 8 6 5 5 6 7 8 10 9 9 9 10 11 12 11 10 9 9 9 9 9 9 9 8 9 10 10 10 9 9
9 8 7 8 7 8 9 9 9 8 7 8 10 12 15 15 15 14 10 8 9 9 10 11 11 10 9 8 9 12 17 13 7 5 7 8 8 9 9 6 3 2 1 2 5 6 6 8 10 10 9 9 7 7 7 7 6 5 5 6 6 7 8 8 9 10 10 9 8 7 6 5 6 8 9 10 10 9 9 10 11 12 12 10 9 8 8 8 8 8 8 8 8 9 10 10 8
7 6 6 7 7 7 7 6 7 8 7 6 6 7 8 10 14 14 11 10 9 6 7 9 9 8 7 9 10 10 13 14 10 7 7 6 7 7 5 6 8 7 6 9 9 7 8 8 7 8 10 12 12 11 11 10 10 11 10 9 8 7 7 7 8 9 9 9 8 7 7 6 6 7 7 8 9 9 10 10 10 11 11 11 10 9 9 8 8 7 8 7 7 7 8 10 10
5 4 4 5 6 4 3 3 6 9 11 13 10 8 8 8 10 12 10 11 12 10 7 7 7 5 3 6 9 8 9 12 11 7 5 5 5 1 -3 0 5 5 10 21 21 14 11 10 9 9 7 8 9 9 10 11 12 12 12 12 13 13 12 9 7 7 7 8 8 8 8 7 6 6 7 7 7 7 8 8 9 10 10 10 10 10 9 8 8 8 7 7 6 6 5 5 7
7 7 5 5 4 4 4 4 6 7 9 13 12 10 10 7 3 5 6 7 11 11 8 7 4 3 3 7 9 7 8 13 13 7 1 2 6 3 -0 1 2 -1 1 14 21 16 11 11 11 11 10 7 5 5 7 9 9 9 10 9 10 12 16 16 14 11 8 7 6 7 8 8 8 6 5 5 5 5 5 5 6 6 7 7 7 8 8 7 7 7 6 7 7 6 5 4 4
8 8 8 7 6 8 8 5 4 5 4 6 8 8 9 5 2 5 8 9 11 10 7 4 1 4 8 10 9 5 3 5 11 15 10 3 3 3 2 1 -0 0 0 5 11 10 9 10 9 9 10 8 9 9 6 4 3 5 5 5 4 4 6 11 16 18 16 13 10 7 5 6 7 7 7 6 5 5 4 4 4 4 5 5 5 5 5 6 6 6 5 5 6 6 5 6 5
8 8 9 9 7 8 9 6 4 4 4 4 4 3 2 1 1 2 4 7 8 8 6 0 -2 6 13 12 11 7 3 -1 2 12 16 9 6 4 4 2 -2 -1 2 3 4 3 4 8 8 9 11 11 11 9 4 1 2 5 6 7 7 6 4 3 7 13 17 18 18 15 12 9 6 6 6 5 5 5 5 5 4 4 4 4 5 5 5 5 5 6 6 5 5 5 4 4 5
4 6 7 7 7 9 8 6 3 1 4 5 3 2 3 3 3 2 0 3 6 7 5 -1 -3 4 10 10 10 9 9 8 6 8 8 7 7 4 3 3 -1 -4 -0 4 6 4 4 6 8 12 16 15 9 3 1 1 1 4 4 3 5 8 8 8 7 8 9 10 14 16 16 16 15 12 10 7 6 4 3 5 5 5 5 4 5 5 5 6 5 5 5 5 5 5 5 5 4
4 4 5 4 5 8 7 5 3 4 7 5 1 2 2 2 2 -1 -5 -3 4 10 9 4 3 6 8 7 8 10 9 7 5 2 0 0 0 -3 -5 -2 -4 -8 -2 8 9 4 3 3 5 8 12 13 8 1 -4 -5 -1 5 2 1 6 6 6 9 10 7 1 -1 3 7 9 12 13 15 16 16 15 11 6 4 4 5 6 6 6 6 5 6 6 6 5 5 6 5 6 6 5
Height
5820 5821 5822 5823 5824 5825 5826 5827 5827 5828 5829 5830 5829 5828 5829 5831 5833 5834 5834 5835 5835 5836 5837 5837 5838 5838 5838 5838 5839 5839 5839 5840 5840 5841 5841 5841 5841 5841 5841 5841 5841 5841 5841 5841 5840 5840 5840 5839 5839 5838 5838 5838 5838 5838 5838 5838 5838 5838 5838 5838 5838 5838 5837 5837 5837 5837 5837 5837 5837 5838 5838 5838 5838 5838 5839 5839 5840 5841 5841 5842 5842 5843 5844 5844 5845 5845 5846 5847 5847 5848 5848 5849 5849 5850 5851 5852 5853
5816 5817 5819 5820 5821 5822 5823 5823 5825 5826 5827 5827 5826 5826 5827 5829 5830 5831 5832 5833 5834 5835 5836 5836 5836 5836 5836 5836 5837 5837 5837 5838 5838 5838 5838 5838 5838 5839 5839 5839 5839 5839 5839 5839 5838 5838 5838 5838 5837 5837 5837 5837 5837 5837 5837 5836 5836 5836 5836 5836 5836 5836 5836 5836 5836 5836 5836 5836 5836 5836 5837 5837 5837 5837 5838 5838 5838 5839 5840 5840 5841 5842 5843 5843 5844 5844 5845 5846 5847 5847 5847 5848 5849 5849 5851 5851 5852
5813 5814 5815 5817 5818 5819 5820 5821 5822 5824 5824 5824 5823 5824 5825 5826 5828 5829 5830 5831 5832 5833 5833 5834 5834 5834 5834 5835 5835 5835 5836 5836 5836 5836 5835 5836 5836 5836 5836 5837 5837 5837 5837 5837 5837 5836 5836 5836 5836 5835 5835 5835 5835 5835 5835 5835 5835 5835 5835 5835 5835 5835 5835 5835 5834 5835 5835 5835 5835 5835 5835 5835 5835 5836 5836 5836 5837 5838 5838 5839 5839 5840 5841 5842 5843 5844 5844 5845 5846 5846 5846 5847 5848 5849 5850 5851 5852
5811 5811 5812 5814 5815 5816 5817 5818 5820 5821 5822 5821 5820 5821 5823 5824 5825 5827 5828 5829 5830 5831 5831 5831 5831 5832 5833 5833 5833 5834 5834 5834 5834 5833 5833 5833 5833 5834 5834 5834 5835 5835 5835 5835 5835 5835 5834 5834 5834 5834 5833 5833 5833 5833 5833 5833 5833 5833 5833 5833 5834 5834 5834 5834 5833 5833 5833 5833 5834 5833 5833 5833 5833 5834 5834 5835 5835 5836 5836 5837 5837 5838 5839 5841 5842 5843 5844 5844 5845 5845 5845 5846 5847 5848 5849 5850 5851
5808 5809 5810 5811 5811 5812 5814 5815 5817 5819 5819 5817 5817 5819 5821 5822 5823 5824 5826 5826 5827 5828 5829 5829 5829 5830 5830 5831 5831 5831 5831 5831 5831 5830 5831 5831 5831 5832 5832 5833 5833 5833 5833 5833 5833 5833 5833 5832 5832 5832 5831 5831 5831 5831 5831 5831 5831 5831 5831 5832 5832 5832 5832 5832 5832 5832 5832 5832 5832 5832 5832 5831 5831 5832 5832 5832 5833 5834 5834 5835 5836 5836 5837 5839 5840 5841 5842 5843 5844 5844 5844 5845 5846 5847 5848 5849 5850
5805 5806 5807 5808 5809 5810 5811 5813 5815 5816 5816 5814 5814 5816 5818 5820 5821 5822 5823 5824 5825 5826 5827 5827 5827 5828 5828 5828 5829 5829 5828 5828 5828 5828 5828 5829 5830 5830 5830 5831 5831 5831 5831 5831 5831 5831 5830 5830 5830 5830 5830 5830 5830 5829 5829 5829 5829 5829 5830 5830 5831 5831 5831 5831 5831 5831 5831 5831 5831 5831 5830 5830 5829 5830 5830 5830 5830 5831 5832 5833 5834 5835 5835 5837 5839 5840 5841 5842 5842 5843 5843 5844 5845 5846 5847 5848 5850
5802 5803 5804 5805 5806 5807 5809 5811 5813 5813 5813 5810 5810 5813 5815 5817 5819 5820 5821 5823 5823 5823 5824 5825 5825 5825 5825 5826 5826 5826 5826 5826 5826 5826 5826 5827 5828 5828 5828 5828 5828 5829 5829 5829 5829 5828 5828 5828 5828 5828 5828 5828 5828 5827 5827 5828 5828 5828 5829 5829 5829 5829 5830 5830 5830 5830 5830 5830 5830 5830 5829 5828 5828 5828 5828 5828 5828 5829 5830 5831 5832 5832 5833 5835 5837 5838 5840 5840 5841 5842 5842 5843 5844 5845 5846 5848 5849
5799 5800 5801 5802 5803 5805 5806 5809 5810 5810 5810 5808 5807 5810 5812 5815 5817 5818 5820 5820 5820 5820 5821 5822 5822 5822 5823 5824 5824 5824 5823 5823 5823 5823 5824 5825 5826 5826 5826 5826 5826 5827 5827 5827 5827 5827 5827 5826 5826 5827 5827 5826 5826 5826 5826 5827 5827 5827 5827 5827 5828 5828 5828 5828 5828 5829 5828 5828 5828 5828 5828 5827 5827 5827 5827 5827 5827 5827 5828 5830 5830 5830 5831 5833 5835 5837 5838 5839 5840 5840 5841 5842 5843 5844 5845 5846 5848
5796 5797 5799 5800 5801 5802 5804 5806 5807 5807 5807 5805 5803 5806 5809 5813 5815 5816 5817 5817 5817 5818 5818 5819 5819 5820 5820 5821 5821 5821 5821 5821 5821 5821 5822 5823 5824 5824 5824 5824 5824 5824 5825 5825 5825 5825 5825 5825 5825 5825 5825 5824 5824 5824 5824 5825 5826 5825 5825 5825 5826 5827 5826 5827 5827 5827 5827 5827 5826 5826 5826 5826 5826 5826 5826 5826 5826 5826 5827 5828 5828 5829 5829 5831 5833 5835 5836 5838 5838 5839 5840 5841 5842 5843 5844 5845 5847
5793 5794 5796 5797 5798 5800 5801 5803 5804 5804 5804 5802 5801 5803 5807 5810 5812 5813 5814 5814 5815 5816 5817 5817 5817 5818 5818 5819 5819 5819 5819 5819 5820 5820 5821 5821 5822 5822 5822 5822 5822 5822 5822 5823 5823 5823 5823 5823 5823 5823 5823 5822 5822 5822 5823 5824 5824 5823 5823 5823 5824 5825 5825 5825 5825 5826 5826 5825 5825 5825 5825 5824 5824 5824 5824 5824 5824 5825 5826 5826 5827 5827 5828 5829 5831 5833 5835 5836 5837 5837 5838 5839 5840 5842 5843 5844 5845
5790 5791 5793 5794 5795 5797 5799 5800 5800 5801 5800 5800 5800 5800 5803 5806 5809 5810 5811 5813 5814 5815 5815 5815 5815 5816 5816 5817 5817 5817 5817 5818 5818 5818 5819 5819 5819 5820 5820 5820 5820 5820 5820 5820 5820 5821 5821 5821 5821 5821 5821 5820 5820 5821 5822 5823 5823 5822 5822 5822 5823 5823 5823 5824 5824 5824 5824 5824 5823 5823 5823 5822 5822 5822 5822 5823 5823 5823 5824 5824 5825 5825 5826 5827 5829 5831 5833 5834 5836 5836 5837 5838 5839 5840 5842 5843 5844
5787 5789 5790 5791 5793 5794 5795 5797 5797 5797 5797 5798 5798 5797 5799 5803 5806 5808 5809 5811 5812 5812 5813 5814 5814 5814 5814 5814 5815 5816 5816 5816 5816 5816 5816 5817 5817 5817 5818 5818 5818 5818 5818 5818 5818 5818 5819 5819 5819 5819 5819 5819 5818 5819 5821 5822 5822 5822 5821 5821 5821 5821 5822 5822 5822 5822 5822 5822 5821 5821 5821 5820 5820 5820 5820 5821 5821 5822 5822 5823 5823 5823 5824 5825 5827 5828 5831 5833 5834 5835 5835 5836 5838 5839 5841 5842 5843
5785 5786 5787 5788 5790 5791 5792 5794 5794 5793 5793 5795 5795 5795 5798 5801 5804 5806 5807 5808 5809 5810 5811 5812 5812 5812 5812 5812 5813 5814 5814 5814 5814 5814 5814 5815 5815 5815 5815 5815 5815 5815 5815 5816 5816 5816 5816 5817 5817 5817 5817 5817 5817 5819 5820 5820 5820 5820 5820 5820 5820 5820 5820 5820 5821 5820 5820 5820 5820 5819 5818 5818 5818 5818 5818 5819 5819 5820 5821 5821 5821 5821 5822 5823 5825 5826 5828 5831 5832 5833 5834 5835 5837 5838 5840 5841 5842
5782 5783 5785 5786 5787 5788 5790 5790 5790 5790 5790 5792 5793 5794 5797 5799 5801 5802 5803 5805 5807 5808 5808 5809 5809 5809 5810 5811 5811 5812 5812 5812 5812 5812 5812 5813 5812 5813 5813 5813 5813 5813 5813 5814 5814 5814 5814 5814 5814 5815 5815 5815 5817 5818 5818 5818 5818 5819 5819 5819 5819 5818 5818 5819 5819 5818 5818 5818 5817 5817 5816 5816 5816 5816 5816 5817 5818 5818 5819 5819 5820 5820 5821 5822 5823 5824 5826 5828 5830 5832 5832 5834 5835 5837 5838 5840 5841
5780 5781 5782 5783 5785 5786 5786 5786 5786 5786 5788 5790 5791 5793 5794 5796 5798 5800 5801 5803 5804 5805 5805 5806 5806 5807 5808 5809 5809 5810 5811 5811 5810 5810 5811 5811 5810 5810 5810 5810 5811 5811 5811 5811 5811 5811 5812 5812 5812 5812 5813 5814 5816 5816 5816 5816 5816 5817 5817 5817 5817 5817 5817 5817 5817 5816 5816 5815 5815 5815 5815 5814 5814 5814 5814 5815 5816 5817 5817 5817 5818 5819 5820 5821 5822 5823 5824 5826 5828 5830 5831 5832 5834 5835 5837 5838 5839
5777 5778 5780 5781 5782 5783 5783 5782 5782 5784 5787 5788 5789 5790 5791 5793 5796 5798 5799 5800 5800 5801 5803 5803 5804 5805 5806 5806 5807 5808 5809 5808 5808 5808 5808 5809 5809 5809 5808 5808 5808 5809 5809 5809 5809 5809 5809 5810 5810 5811 5812 5813 5814 5814 5814 5814 5814 5814 5815 5815 5815 5815 5815 5815 5815 5814 5813 5813 5812 5812 5813 5813 5812 5812 5813 5813 5814 5815 5815 5816 5816 5817 5818 5819 5820 5821 5822 5823 5825 5827 5829 5831 5832 5834 5835 5837 5838
5775 5776 5778 5779 5780 5780 5780 5779 5780 5782 5784 5785 5786 5787 5788 5790 5793 5795 5796 5797 5797 5798 5800 5800 5801 5802 5803 5804 5805 5806 5806 5805 5805 5805 5806 5806 5807 5807 5806 5806 5806 5806 5806 5807 5807 5807 5807 5808 5808 5809 5810 5811 5811 5812 5812 5812 5812 5812 5812 5813 5813 5813 5813 5813 5813 5813 5812 5811 5811 5811 5811 5811 5811 5811 5811 5812 5813 5813 5814 5814 5815 5816 5817 5818 5819 5820 5821 5822 5823 5825 5827 5829 5831 5832 5834 5835 5837
5773 5774 5776 5777 5778 5777 5776 5776 5778 5780 5781 5782 5783 5785 5786 5787 5789 5792 5793 5794 5795 5796 5798 5798 5799 5800 5802 5802 5803 5803 5802 5802 5803 5803 5804 5804 5804 5804 5804 5804 5804 5804 5804 5804 5804 5805 5805 5806 5807 5807 5808 5808 5809 5809 5809 5810 5810 5810 5810 5811 5811 5811 5811 5811 5811 5811 5810 5810 5809 5810 5810 5810 5811 5810 5811 5811 5811 5811 5812 5812 5813 5814 5816 5817 5818 5818 5819 5820 5821 5823 5825 5827 5829 5831 5833 5834 5835
5771 5772 5774 5775 5774 5774 5774 5774 5775 5777 5779 5780 5781 5783 5784 5785 5786 5788 5790 5792 5793 5795 5796 5797 5797 5798 5799 5800 5800 5799 5799 5800 5801 5801 5801 5801 5802 5802 5802 5801 5801 5801 5801 5802 5802 5802 5803 5804 5805 5805 5805 5806 5806 5807 5807 5808 5808 5808 5809 5809 5809 5809 5810 5810 5809 5808 5808 5808 5808 5809 5809 5809 5809 5809 5810 5810 5810 5810 5810 5811 5811 5812 5814 5815 5816 5817 5818 5819 5820 5821 5823 5825 5827 5830 5831 5833 5834
5768 5770 5772 5771 5771 5771 5772 5772 5773 5775 5777 5778 5779 5781 5782 5783 5784 5786 5788 5789 5791 5792 5793 5794 5795 5795 5796 5796 5796 5796 5797 5798 5799 5798 5798 5799 5799 5799 5799 5798 5798 5798 5798 5799 5799 5800 5801 5802 5802 5803 5803 5804 5804 5805 5805 5805 5806 5806 5807 5807 5807 5808 5808 5808 5808 5807 5806 5807 5807 5807 5807 5808 5808 5808 5808 5808 5809 5809 5809 5809 5810 5811 5812 5813 5814 5814 5815 5817 5818 5820 5821 5823 5825 5827 5830 5831 5832
5766 5768 5768 5768 5769 5769 5769 5769 5771 5773 5775 5776 5777 5779 5780 5781 5782 5784 5786 5787 5788 5790 5790 5791 5791 5791 5793 5793 5794 5794 5795 5796 5796 5796 5796 5796 5795 5795 5795 5795 5795 5795 5796 5796 5797 5797 5798 5799 5800 5801 5801 5802 5802 5802 5803 5803 5804 5804 5805 5805 5806 5806 5806 5806 5806 5805 5804 5805 5805 5806 5806 5807 5807 5807 5807 5807 5807 5807 5807 5807 5808 5809 5809 5810 5811 5812 5813 5814 5816 5817 5819 5821 5823 5825 5828 5830 5831
5764 5765 5765 5765 5766 5767 5767 5767 5768 5770 5772 5774 5776 5777 5778 5779 5781 5782 5784 5785 5786 5786 5787 5788 5788 5789 5790 5791 5792 5792 5794 5794 5794 5794 5794 5793 5793 5792 5792 5792 5792 5792 5793 5794 5794 5795 5796 5797 5797 5798 5799 5800 5800 5800 5801 5801 5802 5803 5803 5804 5804 5804 5804 5804 5804 5804 5803 5803 5804 5805 5805 5806 5805 5805 5805 5805 5805 5805 5805 5805 5806 5807 5807 5808 5809 5810 5811 5812 5813 5815 5817 5819 5821 5823 5826 5828 5830
5761 5762 5762 5762 5764 5764 5764 5764 5765 5768 5770 5772 5774 5775 5776 5777 5779 5780 5782 5783 5783 5784 5785 5786 5786 5787 5788 5789 5790 5791 5791 5792 5792 5791 5791 5791 5790 5789 5789 5789 5789 5790 5791 5791 5792 5793 5794 5794 5795 5796 5797 5797 5798 5798 5799 5799 5800 5801 5802 5802 5802 5803 5803 5803 5803 5803 5802 5802 5802 5804 5804 5804 5804 5804 5804 5804 5803 5803 5804 5804 5805 5805 5806 5806 5807 5808 5809 5810 5811 5812 5814 5817 5819 5821 5823 5826 5828
5758 5759 5759 5760 5761 5761 5762 5762 5763 5765 5767 5770 5772 5772 5774 5775 5776 5778 5780 5780 5781 5782 5783 5784 5785 5786 5787 5787 5788 5788 5789 5789 5789 5789 5789 5789 5788 5788 5787 5787 5787 5788 5788 5789 5789 5790 5791 5792 5793 5793 5794 5795 5795 5796 5797 5797 5798 5799 5800 5800 5801 5801 5801 5801 5801 5801 5801 5800 5801 5802 5803 5803 5803 5803 5803 5803 5802 5802 5803 5803 5804 5803 5804 5805 5805 5806 5807 5808 5809 5810 5812 5814 5816 5818 5821 5824 5826
5756 5756 5757 5758 5758 5759 5760 5761 5761 5762 5764 5767 5769 5770 5772 5773 5774 5776 5777 5777 5778 5779 5780 5782 5783 5784 5784 5785 5785 5786 5786 5786 5786 5787 5787 5787 5786 5786 5785 5785 5785 5785 5786 5786 5787 5788 5789 5790 5790 5791 5792 5792 5793 5794 5795 5796 5797 5797 5798 5799 5799 5799 5800 5800 5800 5799 5799 5799 5799 5799 5800 5801 5801 5801 5801 5801 5801 5801 5801 5801 5801 5801 5802 5803 5803 5804 5805 5806 5807 5808 5810 5811 5814 5816 5818 5821 5824
5754 5754 5755 5756 5756 5757 5758 5759 5759 5760 5762 5764 5767 5768 5769 5771 5772 5773 5774 5775 5776 5777 5778 5779 5780 5781 5781 5782 5783 5783 5784 5784 5783 5784 5785 5785 5784 5783 5783 5784 5784 5784 5784 5785 5785 5786 5787 5787 5788 5789 5789 5790 5791 5792 5793 5793 5794 5795 5796 5796 5797 5798 5798 5798 5798 5798 5797 5797 5797 5797 5798 5799 5799 5799 5799 5799 5799 5799 5799 5799 5799 5800 5800 5801 5801 5802 5803 5804 5805 5807 5808 5809 5811 5813 5816 5819 5821
5752 5752 5753 5754 5755 5755 5756 5757 5758 5759 5760 5762 5764 5765 5766 5768 5770 5771 5772 5773 5774 5775 5775 5777 5778 5779 5779 5780 5780 5781 5781 5781 5781 5782 5782 5782 5782 5781 5782 5782 5782 5783 5783 5783 5784 5785 5785 5786 5786 5787 5787 5788 5789 5789 5790 5791 5792 5793 5793 5794 5795 5795 5795 5795 5796 5796 5795 5795 5795 5796 5796 5796 5797 5797 5797 5797 5797 5798 5798 5797 5797 5798 5798 5798 5799 5800 5801 5802 5803 5805 5806 5808 5809 5811 5813 5816 5818
5749 5750 5751 5752 5753 5753 5754 5755 5756 5758 5759 5760 5762 5763 5764 5766 5768 5769 5770 5770 5771 5772 5773 5775 5776 5776 5776 5777 5778 5778 5778 5778 5779 5779 5780 5780 5779 5780 5780 5780 5781 5781 5782 5782 5783 5783 5784 5784 5784 5785 5786 5786 5787 5787 5788 5788 5789 5790 5791 5791 5792 5793 5793 5793 5793 5793 5793 5793 5793 5794 5794 5794 5794 5794 5794 5795 5796 5796 5796 5796 5795 5796 5796 5797 5797 5798 5798 5799 5800 5802 5803 5805 5807 5808 5810 5813 5815
5747 5749 5750 5750 5751 5752 5752 5754 5755 5756 5757 5759 5760 5761 5762 5764 5765 5765 5766 5767 5768 5770 5771 5772 5772 5773 5774 5775 5776 5776 5776 5776 5777 5777 5777 5777 5777 5778 5779 5779 5779 5779 5780 5780 5781 5781 5781 5782 5783 5783 5784 5784 5785 5785 5786 5786 5787 5787 5788 5789 5789 5790 5790 5790 5790 5791 5791 5791 5791 5792 5792 5792 5790 5791 5793 5793 5793 5794 5794 5794 5793 5794 5795 5795 5795 5795 5795 5796 5797 5798 5800 5802 5804 5806 5808 5810 5812
5745 5747 5748 5748 5750 5750 5751 5752 5754 5755 5755 5756 5758 5759 5760 5761 5762 5762 5763 5764 5766 5767 5769 5769 5770 5771 5771 5772 5773 5774 5774 5774 5775 5775 5775 5775 5775 5776 5777 5777 5777 5777 5778 5778 5779 5779 5779 5780 5781 5782 5782 5783 5783 5784 5784 5784 5784 5785 5785 5786 5787 5787 5788 5788 5788 5788 5788 5789 5789 5790 5790 5789 5788 5789 5791 5791 5791 5791 5792 5792 5791 5792 5793 5792 5792 5792 5793 5794 5794 5795 5797 5799 5801 5803 5805 5807 5809
5743 5745 5746 5747 5748 5749 5749 5750 5751 5752 5753 5754 5755 5755 5758 5759 5758 5759 5761 5763 5764 5765 5766 5766 5767 5768 5769 5770 5771 5771 5772 5772 5772 5772 5773 5773 5773 5774 5774 5774 5774 5775 5775 5776 5776 5777 5777 5778 5779 5779 5780 5781 5781 5782 5782 5782 5782 5782 5783 5783 5784 5785 5785 5785 5786 5786 5786 5786 5787 5787 5788 5787 5786 5787 5788 5789 5789 5789 5789 5789 5789 5790 5790 5789 5790 5791 5792 5792 5793 5794 5795 5796 5798 5800 5802 5804 5806
5742 5743 5744 5745 5746 5747 5747 5748 5748 5750 5750 5751 5752 5753 5756 5757 5756 5757 5759 5761 5762 5762 5763 5764 5764 5765 5766 5767 5768 5768 5769 5770 5770 5770 5770 5770 5770 5771 5771 5771 5772 5772 5773 5773 5774 5774 5775 5775 5776 5777 5778 5778 5779 5779 5779 5779 5780 5780 5781 5781 5782 5782 5783 5783 5783 5783 5783 5784 5784 5785 5785 5785 5785 5785 5785 5786 5787 5786 5786 5786 5787 5788 5787 5788 5789 5790 5790 5791 5792 5792 5793 5794 5795 5797 5799 5800 5802
5741 5742 5742 5743 5744 5744 5745 5746 5746 5748 5749 5750 5751 5752 5755 5756 5754 5755 5757 5758 5758 5759 5760 5761 5762 5763 5763 5764 5764 5765 5766 5767 5767 5768 5767 5767 5767 5767 5768 5768 5769 5769 5770 5770 5771 5771 5772 5773 5773 5774 5775 5775 5776 5776 5777 5777 5777 5778 5778 5779 5779 5780 5780 5780 5780 5780 5780 5781 5781 5782 5782 5782 5782 5782 5783 5783 5783 5783 5783 5784 5786 5786 5786 5786 5786 5787 5788 5789 5790 5790 5790 5791 5792 5794 5795 5796 5798
5740 5740 5741 5742 5742 5742 5743 5744 5745 5746 5747 5748 5749 5750 5754 5753 5751 5753 5755 5755 5756 5757 5758 5759 5760 5760 5760 5761 5762 5762 5763 5764 5765 5765 5764 5764 5764 5764 5765 5765 5766 5766 5767 5767 5768 5768 5768 5769 5770 5770 5771 5772 5773 5773 5774 5774 5774 5775 5775 5776 5776 5777 5777 5777 5777 5777 5777 5778 5778 5779 5779 5779 5779 5780 5780 5780 5780 5780 5781 5782 5783 5784 5784 5784 5784 5786 5786 5787 5788 5788 5788 5789 5790 5791 5792 5792 5794
5739 5740 5740 5741 5741 5741 5741 5742 5743 5744 5745 5746 5747 5749 5751 5750 5750 5751 5753 5753 5754 5755 5756 5757 5757 5758 5758 5758 5759 5760 5760 5761 5761 5761 5761 5761 5761 5761 5762 5762 5763 5763 5764 5764 5764 5765 5765 5765 5766 5767 5767 5768 5769 5770 5770 5771 5771 5772 5772 5773 5773 5774 5774 5774 5774 5774 5774 5775 5775 5776 5776 5776 5777 5777 5777 5777 5777 5778 5778 5778 5779 5781 5781 5781 5782 5783 5784 5784 5785 5785 5786 5787 5788 5788 5789 5789 5790
5737 5738 5739 5740 5740 5740 5740 5741 5742 5743 5744 5745 5746 5748 5749 5749 5748 5749 5750 5751 5751 5752 5753 5754 5754 5755 5755 5755 5756 5756 5757 5757 5757 5757 5758 5758 5759 5759 5759 5760 5760 5760 5760 5761 5761 5761 5761 5761 5762 5763 5764 5765 5766 5767 5767 5768 5768 5768 5768 5769 5770 5770 5771 5771 5772 5772 5772 5772 5772 5772 5773 5773 5773 5774 5774 5774 5774 5775 5775 5775 5776 5777 5778 5779 5780 5780 5781 5781 5782 5782 5784 5785 5785 5785 5786 5787 5788
5736 5736 5737 5738 5739 5739 5739 5739 5740 5741 5742 5744 5745 5746 5747 5747 5747 5747 5748 5748 5749 5749 5750 5751 5751 5752 5752 5752 5753 5753 5754 5754 5754 5754 5755 5756 5757 5757 5758 5758 5758 5757 5757 5757 5757 5758 5758 5758 5759 5760 5761 5762 5763 5764 5764 5764 5764 5765 5765 5765 5766 5767 5768 5768 5768 5769 5769 5769 5769 5769 5770 5770 5770 5771 5771 5771 5772 5772 5772 5772 5773 5773 5775 5776 5777 5778 5778 5779 5780 5781 5782 5782 5782 5782 5784 5785 5785
5734 5734 5735 5736 5737 5737 5737 5737 5738 5739 5740 5741 5742 5744 5745 5745 5745 5745 5745 5745 5745 5746 5747 5748 5748 5748 5749 5750 5751 5751 5751 5751 5751 5752 5753 5754 5755 5756 5756 5756 5755 5754 5753 5753 5753 5754 5754 5755 5756 5757 5757 5758 5759 5760 5760 5761 5761 5761 5762 5763 5763 5764 5764 5765 5765 5765 5765 5766 5766 5766 5766 5767 5767 5767 5768 5768 5769 5769 5769 5769 5770 5771 5772 5773 5774 5775 5776 5776 5778 5778 5778 5779 5780 5780 5781 5782 5782
5732 5732 5733 5734 5734 5735 5735 5735 5735 5736 5737 5739 5740 5741 5742 5743 5743 5743 5743 5743 5742 5743 5744 5745 5745 5746 5747 5748 5748 5748 5748 5748 5749 5750 5751 5752 5753 5753 5753 5753 5752 5752 5750 5749 5749 5750 5751 5751 5753 5753 5754 5755 5756 5756 5757 5757 5758 5758 5759 5760 5760 5761 5761 5761 5761 5762 5762 5762 5763 5763 5763 5763 5764 5764 5765 5765 5766 5766 5766 5767 5767 5768 5769 5770 5771 5773 5773 5774 5775 5775 5776 5776 5777 5778 5778 5779 5780
5729 5730 5731 5731 5731 5731 5731 5731 5732 5733 5734 5736 5737 5738 5739 5740 5741 5742 5741 5741 5740 5740 5741 5742 5744 5744 5744 5745 5745 5745 5746 5746 5746 5747 5747 5749 5750 5750 5750 5750 5750 5749 5748 5746 5746 5747 5748 5748 5749 5750 5751 5752 5752 5753 5753 5754 5754 5755 5756 5757 5758 5758 5758 5758 5758 5758 5758 5759 5759 5760 5760 5760 5761 5761 5762 5762 5762 5763 5763 5764 5764 5765 5767 5767 5768 5769 5770 5771 5772 5772 5773 5774 5775 5776 5776 5777 5777
5727 5727 5727 5728 5727 5727 5728 5728 5729 5729 5730 5732 5734 5735 5736 5738 5739 5739 5738 5738 5738 5737 5737 5739 5741 5741 5741 5742 5742 5743 5743 5743 5744 5744 5744 5745 5746 5747 5747 5747 5747 5746 5745 5744 5744 5745 5745 5746 5746 5747 5748 5749 5749 5749 5750 5751 5751 5752 5753 5754 5754 5755 5755 5755 5755 5755 5755 5755 5756 5756 5757 5757 5757 5758 5759 5759 5759 5760 5760 5761 5761 5761 5763 5764 5765 5766 5767 5768 5768 5768 5770 5771 5772 5774 5774 5775 5775
5724 5724 5725 5724 5724 5725 5725 5726 5726 5727 5728 5729 5730 5731 5733 5735 5736 5736 5735 5735 5735 5734 5735 5736 5737 5737 5737 5738 5738 5738 5739 5740 5740 5741 5741 5742 5743 5743 5744 5744 5744 5743 5741 5741 5741 5742 5742 5743 5743 5744 5745 5746 5746 5747 5748 5748 5748 5748 5749 5750 5751 5751 5752 5752 5752 5752 5752 5752 5752 5753 5754 5754 5754 5755 5756 5756 5757 5757 5757 5758 5758 5759 5759 5760 5762 5763 5764 5765 5765 5765 5766 5768 5769 5770 5771 5772 5772
5721 5722 5722 5721 5721 5722 5722 5723 5723 5724 5724 5725 5726 5727 5728 5732 5733 5733 5732 5732 5732 5732 5731 5732 5733 5732 5732 5733 5733 5733 5734 5736 5737 5737 5738 5738 5739 5740 5741 5741 5740 5739 5739 5738 5739 5739 5740 5741 5741 5742 5742 5744 5744 5745 5745 5744 5744 5745 5746 5747 5748 5748 5749 5749 5749 5749 5749 5749 5750 5750 5750 5751 5751 5752 5752 5753 5754 5754 5755 5755 5756 5756 5757 5757 5758 5759 5761 5762 5763 5763 5764 5765 5767 5767 5768 5769 5770
5719 5719 5718 5718 5718 5719 5719 5720 5720 5720 5721 5721 5723 5723 5724 5727 5729 5729 5729 5729 5729 5728 5727 5727 5727 5727 5728 5728 5729 5730 5731 5733 5734 5734 5734 5735 5736 5737 5737 5737 5737 5736 5736 5736 5736 5737 5737 5738 5739 5739 5740 5741 5742 5742 5742 5741 5741 5742 5743 5744 5745 5745 5745 5746 5746 5746 5746 5746 5747 5747 5748 5748 5748 5749 5749 5750 5751 5752 5752 5753 5753 5754 5754 5755 5755 5756 5758 5760 5761 5761 5761 5762 5763 5764 5765 5766 5767
5715 5715 5715 5716 5716 5716 5716 5716 5716 5716 5717 5718 5719 5720 5721 5722 5725 5726 5725 5726 5725 5724 5723 5723 5723 5723 5725 5726 5727 5727 5728 5730 5731 5730 5730 5731 5733 5734 5734 5734 5734 5733 5733 5733 5734 5734 5735 5736 5736 5737 5738 5739 5740 5740 5740 5739 5739 5739 5740 5741 5741 5741 5742 5742 5743 5743 5743 5743 5744 5744 5744 5745 5745 5746 5746 5747 5748 5749 5750 5750 5750 5751 5751 5752 5753 5753 5755 5756 5758 5758 5759 5759 5760 5762 5762 5763 5765
5712 5712 5713 5713 5713 5713 5713 5713 5713 5713 5714 5716 5716 5717 5717 5717 5719 5721 5721 5722 5721 5720 5721 5721 5720 5720 5722 5723 5723 5724 5725 5726 5727 5727 5727 5728 5730 5731 5731 5731 5731 5731 5731 5731 5731 5731 5732 5733 5734 5734 5735 5736 5737 5738 5737 5737 5736 5736 5737 5738 5738 5738 5738 5739 5739 5740 5740 5740 5740 5741 5741 5742 5743 5743 5744 5745 5745 5746 5747 5747 5748 5748 5749 5749 5750 5751 5751 5753 5754 5755 5756 5757 5758 5759 5760 5760 5761
5709 5709 5710 5710 5710 5710 5710 5710 5710 5710 5711 5713 5713 5713 5713 5712 5714 5715 5717 5719 5718 5717 5718 5718 5717 5717 5719 5720 5720 5720 5721 5722 5723 5724 5724 5726 5727 5728 5728 5728 5728 5729 5729 5729 5729 5729 5729 5730 5731 5732 5733 5734 5735 5735 5735 5734 5734 5734 5734 5735 5735 5735 5735 5735 5736 5736 5737 5737 5737 5738 5738 5739 5740 5741 5742 5742 5743 5744 5744 5745 5745 5746 5746 5747 5747 5748 5749 5750 5751 5752 5753 5754 5755 5755 5756 5757 5758
5707 5707 5707 5707 5707 5707 5708 5708 5708 5708 5709 5710 5710 5710 5709 5710 5710 5710 5712 5715 5714 5714 5714 5715 5715 5715 5715 5717 5718 5718 5718 5719 5720 5721 5722 5723 5725 5726 5726 5726 5726 5727 5727 5726 5727 5727 5727 5728 5729 5729 5730 5731 5732 5732 5732 5732 5732 5732 5732 5732 5732 5732 5732 5732 5733 5733 5734 5734 5734 5735 5735 5736 5737 5738 5739 5740 5740 5741 5742 5742 5743 5743 5744 5744 5745 5746 5746 5747 5748 5749 5750 5751 5752 5752 5753 5754 5755
5705 5705 5705 5705 5705 5705 5706 5705 5705 5705 5706 5707 5707 5707 5707 5708 5708 5707 5708 5710 5711 5711 5711 5711 5712 5712 5713 5714 5715 5716 5717 5717 5718 5719 5720 5721 5722 5723 5724 5724 5724 5725 5724 5724 5724 5724 5725 5725 5726 5726 5727 5728 5729 5730 5730 5730 5730 5730 5729 5730 5730 5730 5730 5730 5730 5730 5731 5731 5731 5731 5732 5732 5733 5734 5735 5737 5737 5738 5739 5740 5741 5741 5742 5742 5743 5743 5744 5744 5745 5746 5746 5747 5748 5749 5750 5751 5752
5702 5702 5702 5702 5702 5703 5703 5703 5703 5703 5703 5704 5704 5704 5705 5705 5706 5705 5706 5707 5708 5708 5708 5709 5710 5711 5711 5712 5713 5714 5715 5716 5716 5717 5718 5719 5719 5720 5721 5722 5722 5722 5722 5722 5722 5722 5722 5723 5723 5723 5724 5725 5726 5727 5727 5728 5727 5727 5727 5727 5727 5727 5728 5728 5728 5728 5728 5728 5728 5729 5729 5729 5730 5731 5732 5733 5734 5735 5736 5737 5738 5739 5740 5740 5740 5741 5741 5742 5742 5743 5744 5744 5745 5747 5748 5748 5749
5700 5700 5700 5700 5701 5701 5701 5701 5701 5701 5701 5701 5702 5702 5702 5703 5704 5704 5704 5705 5705 5705 5706 5708 5709 5709 5709 5710 5711 5712 5713 5714 5714 5715 5716 5716 5717 5718 5720 5721 5721 5721 5721 5721 5721 5721 5720 5720 5720 5721 5721 5722 5723 5724 5724 5725 5725 5725 5725 5725 5725 5725 5725 5726 5726 5726 5726 5726 5726 5726 5726 5727 5727 5728 5729 5730 5731 5731 5732 5733 5735 5736 5737 5737 5738 5738 5739 5739 5740 5740 5741 5742 5743 5744 5745 5746 5746
5698 5698 5698 5698 5699 5699 5699 5699 5699 5699 5699 5699 5700 5700 5700 5701 5702 5702 5703 5703 5703 5703 5704 5705 5706 5707 5708 5708 5709 5710 5711 5712 5713 5713 5714 5713 5714 5716 5717 5719 5719 5719 5719 5719 5719 5718 5718 5718 5718 5719 5719 5720 5720 5720 5721 5722 5722 5723 5723 5723 5723 5723 5723 5723 5724 5724 5724 5724 5724 5724 5724 5724 5725 5726 5727 5727 5728 5728 5729 5730 5731 5732 5733 5734 5735 5736 5736 5737 5737 5738 5738 5739 5740 5740 5741 5742 5743
5695 5695 5696 5696 5696 5696 5696 5696 5696 5697 5696 5696 5697 5698 5698 5698 5699 5700 5701 5701 5701 5702 5702 5703 5704 5704 5705 5706 5707 5708 5709 5710 5711 5711 5711 5711 5712 5712 5713 5715 5716 5716 5717 5716 5716 5716 5716 5716 5716 5717 5717 5717 5717 5717 5718 5719 5719 5720 5720 5720 5720 5720 5720 5720 5721 5721 5722 5722 5722 5722 5722 5722 5723 5723 5724 5725 5725 5726 5726 5727 5727 5728 5729 5730 5731 5732 5733 5734 5734 5735 5735 5736 5736 5737 5737 5738 5739
5693 5693 5693 5693 5693 5693 5694 5693 5693 5693 5693 5693 5695 5695 5695 5696 5696 5697 5698 5699 5699 5700 5700 5700 5701 5701 5703 5703 5704 5706 5707 5707 5708 5709 5709 5709 5709 5709 5709 5710 5712 5712 5713 5714 5714 5714 5714 5714 5714 5714 5714 5714 5714 5715 5715 5716 5717 5717 5717 5717 5717 5717 5717 5717 5718 5718 5719 5719 5720 5720 5720 5721 5721 5721 5722 5722 5723 5724 5724 5724 5725 5725 5726 5727 5728 5729 5730 5730 5731 5732 5732 5733 5733 5733 5733 5734 5734
5690 5690 5690 5690 5690 5690 5690 5690 5690 5690 5690 5690 5691 5692 5693 5693 5693 5694 5694 5695 5696 5697 5697 5698 5698 5698 5699 5700 5701 5702 5703 5704 5705 5705 5706 5706 5706 5706 5706 5707 5707 5708 5710 5710 5711 5712 5712 5712 5712 5712 5712 5712 5712 5712 5713 5713 5714 5715 5715 5714 5714 5714 5714 5714 5715 5715 5715 5716 5716 5717 5718 5718 5718 5719 5719 5720 5720 5721 5721 5722 5722 5723 5723 5724 5725 5725 5726 5727 5728 5729 5729 5730 5730 5730 5730 5731 5731
5687 5687 5687 5687 5687 5687 5687 5687 5687 5687 5687 5687 5687 5688 5689 5690 5690 5690 5691 5691 5693 5694 5694 5695 5695 5696 5696 5696 5697 5698 5699 5700 5701 5701 5702 5703 5703 5703 5704 5704 5704 5705 5706 5707 5708 5709 5709 5710 5710 5709 5709 5709 5709 5710 5710 5711 5711 5712 5712 5711 5710 5711 5711 5712 5712 5712 5713 5713 5713 5714 5715 5715 5716 5716 5717 5717 5718 5718 5719 5719 5719 5720 5720 5721 5722 5722 5723 5723 5724 5725 5726 5726 5727 5727 5727 5728 5728
5682 5683 5683 5683 5684 5684 5684 5683 5683 5684 5684 5683 5683 5684 5685 5685 5686 5687 5688 5688 5690 5691 5691 5692 5692 5692 5693 5693 5693 5694 5695 5696 5697 5697 5698 5699 5700 5700 5701 5701 5701 5701 5702 5704 5705 5705 5706 5706 5707 5707 5707 5707 5708 5708 5708 5709 5709 5709 5709 5707 5707 5707 5708 5709 5710 5710 5710 5710 5710 5711 5711 5712 5712 5713 5714 5715 5715 5716 5716 5716 5717 5717 5718 5718 5718 5719 5719 5720 5720 5721 5721 5722 5722 5723 5724 5724 5724
5678 5679 5679 5680 5680 5680 5680 5680 5680 5680 5680 5679 5679 5679 5679 5680 5681 5683 5684 5685 5686 5687 5688 5688 5688 5689 5689 5689 5690 5690 5691 5692 5692 5693 5694 5696 5696 5697 5698 5698 5698 5698 5699 5700 5701 5701 5702 5703 5703 5704 5704 5704 5705 5705 5705 5706 5706 5706 5706 5705 5704 5704 5704 5705 5706 5707 5708 5708 5708 5708 5709 5710 5710 5710 5711 5712 5713 5713 5713 5714 5714 5714 5715 5715 5715 5715 5716 5716 5716 5717 5717 5717 5718 5718 5719 5720 5720